Location: Bannatyne
(13.0833°N, 59.5333°W)
Time: 18:05:17
(UTC+00:00)

Transit 2A Rocket - All Passes

Search period start: 21 January 2020 00:00
Search period end: 31 January 2020 00:00
Orbit: 593 x 910 km, 66.7° (Epoch: 20 January)

Date Brightness Start Highest point End Pass type
(mag) Time Alt. Az. Time Alt. Az. Time Alt. Az.
21 Jan - 08:27:04 10° S 08:31:11 32° ESE 08:35:05 10° NE visible
21 Jan - 10:12:12 10° W 10:13:31 11° WNW 10:14:49 10° NW daylight
21 Jan - 19:06:48 10° NNE 19:10:38 20° ENE 19:14:39 10° ESE daylight
21 Jan - 20:48:16 10° NW 20:53:00 32° WSW 20:58:05 10° S daylight
22 Jan - 07:46:15 10° SE 07:48:42 14° ESE 07:51:06 10° ENE visible
22 Jan - 09:27:15 10° WSW 09:30:58 25° WNW 09:34:34 10° NNW visible
22 Jan - 20:05:13 10° NNW 20:10:31 65° WSW 20:16:16 10° S daylight
23 Jan - 08:43:59 10° SSW 08:48:29 59° WNW 08:52:45 10° N visible
23 Jan - 19:22:45 10° NNW 19:28:02 63° ENE 19:33:45 10° SSE daylight
24 Jan - 08:01:32 10° S 08:06:01 57° ESE 08:10:16 10° NNE night (unlit)
24 Jan - 18:40:51 10° N 18:45:32 31° ENE 18:50:33 10° SE daylight
24 Jan - 20:23:56 10° WNW 20:27:54 20° WSW 20:32:04 10° SSW daylight
25 Jan - 07:19:51 10° SSE 07:23:33 24° ESE 07:27:06 10° NE night (unlit)
25 Jan - 09:03:19 10° WSW 09:05:51 15° WNW 09:08:20 10° NNW night (unlit)
25 Jan - 17:59:50 10° NNE 18:03:00 16° ENE 18:06:18 10° ESE daylight
25 Jan - 19:40:22 10° NW 19:45:24 40° WSW 19:50:50 10° S daylight
26 Jan - 06:40:18 10° ESE 06:41:05 10° ESE 06:41:52 10° E night (unlit)
26 Jan - 08:19:16 10° SW 08:23:20 33° WNW 08:27:14 10° N night (unlit)
26 Jan - 18:57:32 10° NNW 19:02:55 82° WSW 19:08:46 10° SSE daylight
27 Jan - 07:36:18 10° SSW 07:40:51 80° WNW 07:45:10 10° NNE night (unlit)
27 Jan - 18:15:15 10° N 18:20:25 50° ENE 18:26:02 10° SE daylight
27 Jan - 20:00:26 10° W 20:02:47 13° WSW 20:05:12 10° SW daylight
28 Jan - 06:54:06 10° S 06:58:24 41° ESE 07:02:28 10° NE night (unlit)
28 Jan - 17:33:33 10° NNE 17:37:56 25° ENE 17:42:33 10° ESE daylight
28 Jan - 19:15:48 10° NW 19:20:18 26° WSW 19:25:04 10° SSW daylight
29 Jan - 06:12:49 10° SSE 06:15:56 18° ESE 06:18:56 10° ENE night (unlit)
29 Jan - 07:54:58 10° WSW 07:58:12 19° WNW 08:01:20 10° NNW night (unlit)
29 Jan - 16:53:12 10° NE 16:55:21 12° ENE 16:57:34 10° E daylight
29 Jan - 18:32:33 10° NW 18:37:49 52° WSW 18:43:29 10° S daylight
30 Jan - 07:11:23 10° SW 07:15:41 44° WNW 07:19:49 10° N night (unlit)
30 Jan - 17:49:55 10° NNW 17:55:19 79° ENE 18:01:11 10° SSE daylight
